Orbital Elements at Epoch 2459200.5 (2020-Dec-17.0) TDB
Reference: JPL 20 (heliocentric ecliptic J2000)
Element | Value | Uncertainty (1-sigma) | Units |
e | .1893345903002287 | 4.3368e-08 | |
a | 2.396322857051712 | 1.5981e-08 | au |
q | 1.942616050684753 | 1.0257e-07 | au |
i | 14.51573921671404 | 5.4968e-06 | deg |
node | 190.1817315363979 | 1.6093e-05 | deg |
peri | 146.6018732907216 | 2.4306e-05 | deg |
M | 297.2968153947222 | 2.3926e-05 | deg |
tp | 2459436.495390341520 (2021-Aug-09.99539034) | 9.1755e-05 | TDB |
period | 1354.928638118905 3.71 | 1.3554e-05 3.711e-08 | d yr |
n | .2656966498986992 | 2.6579e-09 | deg/d |
Q | 2.850029663418672 | 1.9007e-08 | au |
|
| | Orbit Determination Parameters
Additional Information
|